Hourly Data Report for July 01, 2021

CAMPBELL RIVER A
BRITISH COLUMBIA
Current Station Operator: NAVCAN

49°57'07.000" N
125°16'23.000" W
108.80 m
1021270
YBL

Download Data

Hourly Data (July 2021)
Hourly Data Report for July 1, 2021
TIME
LST
Temp Definition
°C
Dew Point Definition
°C
Rel Hum Definition
%
Precip. Amount Definition
mm

Wind Dir Definition
10's deg

Wind Spd Definition
km/h
Visibility Definition
km
Stn Press Definition
kPa
Hmdx Definition


Wind Chill Definition


Weather Definition


00:00 18.1 13.9 76 LegendMM 36 4 LegendMM 100.05     LegendNANA
01:00 17.2 14.2 82 LegendMM 29 4 LegendMM 100.09     LegendNANA
02:00 16.9 13.3 79 LegendMM 1 5 LegendMM 100.13     LegendNANA
03:00 16.4 12.9 80 LegendMM 35 5 LegendMM 100.16     LegendNANA
04:00 16.1 13.3 83 LegendMM 30 5 LegendMM 100.17     LegendNANA
05:00 16.2 12.6 79 LegendMM 30 10 LegendMM 100.19     LegendNANA
06:00 16.1 12.4 78 LegendMM 30 11 LegendMM 100.21     LegendNANA
07:00 17.1 12.8 76 LegendMM 31 12 LegendMM 100.24     LegendNANA
08:00 18.1 12.9 71 LegendMM 28 11 LegendMM 100.25     LegendNANA
09:00 19.1 13.2 68 LegendMM 30 12 LegendMM 100.26     LegendNANA
10:00 20.7 13.1 61 LegendMM 30 9 LegendMM 100.25     LegendNANA
11:00 20.5 13.5 64 LegendMM 34 4 LegendMM 100.26     LegendNANA
12:00 21.1 13.6 62 LegendMM 12 13 LegendMM 100.26     LegendNANA
13:00 22.9 13.4 54 LegendMM 8 13 LegendMM 100.27 26   LegendNANA
14:00 24.1 14.1 53 LegendMM 6 8 LegendMM 100.26 28   LegendNANA
15:00 24.3 14.0 52 LegendMM 5 10 LegendMM 100.25 28   LegendNANA
16:00 23.9 13.9 53 LegendMM 8 13 LegendMM 100.22 27   LegendNANA
17:00 24.1 13.8 52 LegendMM 4 4 LegendMM 100.20 27   LegendNANA
18:00 23.3 13.2 52 LegendMM 36 10 LegendMM 100.19 26   LegendNANA
19:00 21.8 13.0 57 LegendMM 35 9 LegendMM 100.20 25   LegendNANA
20:00 19.5 12.3 63 LegendMM 36 8 LegendMM 100.23     LegendNANA
21:00 15.9 12.1 78 LegendMM 31 4 LegendMM 100.29     LegendNANA
22:00 15.8 9.8 67 LegendMM 27 9 LegendMM 100.31     LegendNANA
23:00 14.7 10.1 74 LegendMM 28 8 LegendMM 100.33     LegendNANA

Notes on Data Quality.

Legend

  • E = Estimated
  • M = Missing
  • NA = Not Available*
  • [empty] = Indicates an unobserved value
Date modified: